Flag for U.S.A. Weather past 2 weeks in Carson City, Nevada, U.S.A.

Now
89 °F

Broken clouds.


Feels Like: 85 °F
Forecast: 65 / 91 °F
Wind: 9 mph from North

Location: Reno Tahoe International Airport

Current Time: Jul 31, 2015 at 4:42:13 PM

Latest Report: Jul 31, 2015 at 3:55 PM


Visibility: 10 mi

Pressure: 29.98 "Hg (25.56 "Hg at 1425m altitude)

Humidity: 15%

Dew point: 35 °F

Location of Carson CityLocation

Historic Weather in Carson City — Graph

°F

Carson City temperature yesterday

Maximum temperature yesterday: 98 °F (at 12:55 PM)
Minimum temperature yesterday: 63 °F (at 4:55 AM)
Average temperature yesterday: 82 °F

Past Weeks' High & Low Weather Summary

 TemperatureHumidityPressure
High98 °F (Jul 30, 12:55 PM)73% (Jul 22, 3:55 AM)30.11 "Hg (Jul 22, 3:55 AM)
Low56 °F (Jul 28, 5:55 AM)7% (Jul 30, 12:55 PM)29.70 "Hg (Jul 17, 6:55 PM)
Average76 °F29%29.93 "Hg
* Reported Jul 16 2:55 PM — Jul 31 2:55 PM, Carson City, Weather by CustomWeather, © 2015

Note: Actual official high and low records may vary slightly from our data, if they occured in-between our weather recording intervals... More about our weather records

Advertising

Carson City weather history for previous 24 hours

 ConditionsComfort  
Time TempWeatherWind HumidityBarometerVisibility
2:55 PM
Fri, Jul 31
86 °FLight rain. Cloudy.13 mph20%30.03 "Hg10 mi
1:55 PM91 °FMostly cloudy.15 mph14%30.01 "Hg10 mi
12:55 PM89 °FPartly sunny.3 mph14%30.02 "Hg10 mi
11:55 AM89 °FPartly sunny.5 mph14%30.02 "Hg10 mi
10:55 AM85 °FPartly sunny.6 mph20%30.03 "Hg10 mi
9:55 AM82 °FPartly sunny.No wind21%30.03 "Hg10 mi
8:55 AM79 °FPartly sunny.3 mph25%30.04 "Hg10 mi
7:55 AM74 °FPartly sunny.5 mph28%30.04 "Hg10 mi
6:55 AM72 °FPassing clouds.No wind28%30.03 "Hg10 mi
5:55 AM72 °FPassing clouds.3 mph29%30.02 "Hg10 mi
4:55 AM73 °FPassing clouds.No wind26%30.00 "Hg10 mi
3:55 AM73 °FPartly cloudy.3 mph27%30.00 "Hg10 mi
2:55 AM74 °FPassing clouds.3 mph26%29.99 "Hg10 mi
1:55 AM76 °FPassing clouds.No wind24%29.99 "Hg10 mi
12:55 AM81 °FPassing clouds.No wind18%29.98 "Hg10 mi
11:55 PM
Thu, Jul 30
83 °FPassing clouds.No wind18%29.99 "Hg10 mi
10:55 PM84 °FPartly cloudy.3 mph17%29.99 "Hg10 mi
9:55 PM87 °FPartly cloudy.8 mph15%29.98 "Hg10 mi
8:55 PM89 °FBroken clouds.8 mph14%29.97 "Hg10 mi
7:55 PM93 °FBroken clouds.No wind9%29.96 "Hg10 mi
6:55 PM94 °FPartly sunny.5 mph9%29.96 "Hg10 mi
5:55 PM96 °FPartly sunny.10 mph7%29.96 "Hg10 mi
4:55 PM97 °FPartly sunny.12 mph7%29.97 "Hg10 mi
Weather by CustomWeather, © 2015

See weather overviewHow to use our weather pages